Location: Bern
(46.9167°N, 7.4667°E)
Time: 14:19:06
(UTC+02:00)

ISS - Visible Passes

Search period start: 01 October 2022 00:00
Search period end: 11 October 2022 00:00
Orbit: 414 x 417 km, 51.6° (Epoch: 01 October)

Date Brightness Start Highest point End Pass type
(mag) Time Alt. Az. Time Alt. Az. Time Alt. Az.
01 Oct -3.5 20:31:11 10° WNW 20:34:31 65° SSW 20:35:58 30° SE visible
02 Oct -3.8 19:42:20 10° WNW 19:45:42 85° NNE 19:49:03 10° ESE visible
02 Oct -1.5 21:19:41 10° W 21:22:04 18° SW 21:22:08 18° SW visible
03 Oct -2.1 20:30:26 10° W 20:33:23 28° SW 20:35:29 15° SSE visible
04 Oct -2.8 19:41:23 10° WNW 19:44:37 45° SSW 19:47:49 10° SE visible
05 Oct -0.9 20:30:26 10° WSW 20:31:57 12° SW 20:33:27 10° SSW visible
06 Oct -1.2 19:40:42 10° W 19:43:14 20° SW 19:45:45 10° S visible
